Location: Brookview Estates
(36.0476°N, 86.6931°W)
Time: 15:44:14
(UTC+00:00)

CZ-2C R/B - Pass Details

Date: 30 March 2020
Orbit: 668 x 784 km, 98.2° (Epoch: 02 June)

Event Time Altitude Azimuth Distance (km) Brightness Sun altitude
Rises 10:24:41 0° 5° (N) 3,047 5.9 -14.8°
Reaches altitude 10° 10:27:01 10° 359° (N) 2,117 5.0 -14.4°
Maximum altitude 10:31:23 44° 287° (WNW) 927 2.6 -13.5°
Enters shadow 10:35:29 11° 217° (SW) 2,008 4.2 -12.7°
